EW2219 Weather Reports


Display with metric or nautical units.
time (UTC)temp
F
wind
direction
speed
MPH
gust
MPH
rain 1hr
in
rain 24hr
in
rain mn
in
humidity
%
barometer
mb
20260503233915 52 232 5.0 8.0 0.00 0.00 0.00 74 1007.6
20260503232415 52 245 2.0 5.0 0.00 0.00 0.00 77 1007.7
20260503230915 52 207 4.0 8.0 0.00 0.00 0.00 79 1007.9
20260503225415 51 233 5.0 8.0 0.00 0.00 0.00 85 1007.8
20260503223915 51 229 4.0 5.0 0.00 0.00 0.00 91 1007.7
20260503222415 51 251 3.0 4.0 0.00 0.00 0.00 80 1008.1
20260503215415 53 264 5.0 9.0 0.00 0.00 0.00 71 1008.5
20260503213915 54 259 11.0 14.0 0.00 0.00 0.00 67 1008.1
20260503212415 55 275 6.0 8.0 0.00 0.00 0.00 66 1007.8
20260503210915 55 226 4.0 5.0 0.00 0.00 0.00 69 1007.6
20260503205415 55 228 8.0 17.0 0.00 0.00 0.00 69 1007.7
20260503203915 55 226 6.0 8.0 0.00 0.00 0.00 69 1007.8
20260503202415 54 219 11.0 15.0 0.00 0.00 0.00 70 1007.9
20260503200915 54 187 6.0 8.0 0.00 0.00 0.00 70 1008.1
20260503195415 55 226 7.0 12.0 0.00 0.00 0.00 67 1008.3
20260503193915 55 216 8.0 14.0 0.00 0.00 0.00 67 1008.4
20260503192415 55 216 9.0 14.0 0.00 0.00 0.00 67 1008.7
20260503183915 57 207 6.0 8.0 0.00 0.00 0.00 64 1009.5
20260503182415 56 204 12.0 23.0 0.00 0.00 0.00 65 1009.4
20260503180915 56 213 12.0 21.0 0.00 0.00 0.00 64 1009.7
20260503175414 55 214 8.0 14.0 0.00 0.00 0.00 65 1009.7
20260503173915 56 279 9.0 15.0 0.00 0.00 0.00 57 1010.1
20260503172415 55 234 8.0 11.0 0.00 0.00 0.00 64 1010.0
20260503170915 53 231 10.0 15.0 0.00 0.00 0.00 67 1010.2
20260503150915 52 221 6.0 12.0 0.00 0.00 0.00 59 1011.9
20260503080914 29 202 0.0 0.0 0.00 0.00 0.00 100 1011.8
20260503052414 31 223 0.0 0.0 0.00 0.00 0.00 100 1012.4
20260503050915 31 223 0.0 0.0 0.00 0.00 0.00 100 1012.6
20260503045414 32 223 0.0 0.0 0.00 0.00 0.00 100 1012.6
20260503043915 32 237 0.0 1.0 0.00 0.00 0.00 100 1012.7
20260503042414 32 257 0.0 0.0 0.00 0.00 0.00 100 1012.8
20260503040914 32 210 0.0 0.0 0.00 0.00 0.00 100 1012.8
20260503035414 33 222 0.0 1.0 0.00 0.00 0.00 100 1012.8
20260503033914 33 209 1.0 1.0 0.00 0.00 0.00 100 1013.0
20260503032414 33 224 0.0 1.0 0.00 0.00 0.00 100 1013.0
20260503025414 34 115 0.0 0.0 0.00 0.00 0.00 100 1013.1
20260503023915 35 115 0.0 0.0 0.00 0.00 0.00 100 1013.2
20260503022414 36 115 0.0 0.0 0.00 0.00 0.00 100 1013.4
20260503020914 36 115 0.0 0.0 0.00 0.00 0.00 100 1013.4
20260503015414 37 115 0.0 0.0 0.00 0.00 0.00 100 1013.4
20260503013914 37 115 0.0 0.0 0.00 0.00 0.00 100 1013.3
20260503012414 37 115 0.0 0.0 0.00 0.00 0.00 100 1013.4
20260503010914 37 115 0.0 0.0 0.00 0.00 0.00 100 1013.4
20260503005414 37 115 0.0 0.0 0.00 0.00 0.00 100 1013.2
20260503002414 37 115 0.0 0.0 0.00 0.00 0.00 100 1013.3
20260503000914 37 86 0.0 0.0 0.00 0.00 0.00 100 1013.3
20260502235414 38 98 0.0 0.0 0.00 0.00 0.00 100 1013.2